Wetterdaten: Dienstag, 14.07.2015
Datum Zeit Temp. A. Feuchte A. Luftdruck Regen Wind Richtung Richtung Sonnenschein ET UV Solar Taupunkt Windchill Windben Empfang
14.07.2015 00:00 15,9 C 91 % 1017,2 hPa 0,0 l/m 0,0 km/h (0 Bft) N 351 0 min 0,000 mm 0,0 UV-I 0 W/m 14,4 C 15,9 C 0,0 km/h (0 Bft) 0,00 %
14.07.2015 00:05 15,9 C 90 % 1017,2 hPa 0,0 l/m 1,8 km/h (1 Bft) N 349 0 min 0,000 mm 0,0 UV-I 0 W/m 14,3 C 15,9 C 4,0 km/h (1 Bft) 0,00 %
14.07.2015 00:10 15,9 C 90 % 1017,2 hPa 0,0 l/m 0,4 km/h (0 Bft) N-NO 33 0 min 0,000 mm 0,0 UV-I 0 W/m 14,3 C 15,9 C 4,0 km/h (1 Bft) 0,00 %
14.07.2015 00:15 16,0 C 90 % 1017,4 hPa 0,0 l/m 0,0 km/h (0 Bft) O-NO 59 0 min 0,000 mm 0,0 UV-I 0 W/m 14,4 C 16,0 C 0,0 km/h (0 Bft) 0,00 %
14.07.2015 00:20 16,0 C 89 % 1017,3 hPa 0,0 l/m 0,0 km/h (0 Bft) N-NO 31 0 min 0,000 mm 0,0 UV-I 0 W/m 14,2 C 16,0 C 0,0 km/h (0 Bft) 0,00 %
14.07.2015 00:25 16,0 C 89 % 1017,1 hPa 0,0 l/m 0,0 km/h (0 Bft) N 354 0 min 0,000 mm 0,0 UV-I 0 W/m 14,2 C 16,0 C 0,0 km/h (0 Bft) 0,00 %
14.07.2015 00:30 16,0 C 89 % 1017,4 hPa 0,0 l/m 0,7 km/h (0 Bft) W 259 0 min 0,000 mm 0,0 UV-I 0 W/m 14,2 C 16,0 C 4,0 km/h (1 Bft) 0,00 %
14.07.2015 00:35 16,0 C 90 % 1017,4 hPa 0,0 l/m 0,0 km/h (0 Bft) N-NO 23 0 min 0,000 mm 0,0 UV-I 0 W/m 14,4 C 16,0 C 0,0 km/h (0 Bft) 0,00 %
14.07.2015 00:40 16,0 C 90 % 1017,3 hPa 0,0 l/m 0,0 km/h (0 Bft) NO 54 0 min 0,000 mm 0,0 UV-I 0 W/m 14,4 C 16,0 C 0,0 km/h (0 Bft) 0,00 %
14.07.2015 00:45 16,0 C 90 % 1017,2 hPa 0,0 l/m 0,0 km/h (0 Bft) NO 51 0 min 0,000 mm 0,0 UV-I 0 W/m 14,4 C 16,0 C 0,0 km/h (0 Bft) 0,00 %
14.07.2015 00:50 15,9 C 90 % 1017,3 hPa 0,3 l/m 0,4 km/h (0 Bft) N 352 0 min 0,000 mm 0,0 UV-I 0 W/m 14,3 C 15,9 C 4,0 km/h (1 Bft) 0,00 %
14.07.2015 00:55 15,9 C 90 % 1017,5 hPa 0,0 l/m 0,4 km/h (0 Bft) W-SW 256 0 min 0,000 mm 0,0 UV-I 0 W/m 14,3 C 15,9 C 4,0 km/h (1 Bft) 0,00 %
14.07.2015 01:00 16,0 C 90 % 1017,3 hPa 0,0 l/m 0,0 km/h (0 Bft) N 353 0 min 0,000 mm 0,0 UV-I 0 W/m 14,4 C 16,0 C 0,0 km/h (0 Bft) 0,00 %
14.07.2015 01:05 16,0 C 90 % 1017,3 hPa 0,0 l/m 0,4 km/h (0 Bft) O-SO 105 0 min 0,000 mm 0,0 UV-I 0 W/m 14,4 C 16,0 C 4,0 km/h (1 Bft) 0,00 %
14.07.2015 01:10 16,0 C 89 % 1017,3 hPa 0,0 l/m 7,2 km/h (2 Bft) W-SW 256 0 min 0,000 mm 0,0 UV-I 0 W/m 14,2 C 15,6 C 11,9 km/h (2 Bft) 0,00 %
14.07.2015 01:15 16,0 C 88 % 1017,3 hPa 0,0 l/m 5,4 km/h (1 Bft) W-SW 258 0 min 0,000 mm 0,0 UV-I 0 W/m 14,0 C 16,0 C 7,9 km/h (2 Bft) 0,00 %
14.07.2015 01:20 16,0 C 88 % 1017,2 hPa 0,0 l/m 0,4 km/h (0 Bft) W-SW 251 0 min 0,000 mm 0,0 UV-I 0 W/m 14,0 C 16,0 C 4,0 km/h (1 Bft) 0,00 %
14.07.2015 01:25 16,0 C 87 % 1017,4 hPa 0,0 l/m 1,4 km/h (1 Bft) O-NO 65 0 min 0,000 mm 0,0 UV-I 0 W/m 13,8 C 16,0 C 4,0 km/h (1 Bft) 0,00 %
14.07.2015 01:30 15,9 C 88 % 1017,3 hPa 0,0 l/m 2,2 km/h (1 Bft) N-NW 336 0 min 0,000 mm 0,0 UV-I 0 W/m 13,9 C 15,9 C 4,0 km/h (1 Bft) 0,00 %
14.07.2015 01:35 15,7 C 88 % 1017,3 hPa 0,0 l/m 0,4 km/h (0 Bft) N-NW 340 0 min 0,000 mm 0,0 UV-I 0 W/m 13,7 C 15,7 C 4,0 km/h (1 Bft) 0,00 %
14.07.2015 01:40 15,6 C 89 % 1017,2 hPa 0,0 l/m 3,2 km/h (1 Bft) W-NW 303 0 min 0,000 mm 0,0 UV-I 0 W/m 13,8 C 15,6 C 4,0 km/h (1 Bft) 0,00 %
14.07.2015 01:45 15,5 C 89 % 1017,5 hPa 0,0 l/m 2,2 km/h (1 Bft) W-SW 256 0 min 0,000 mm 0,0 UV-I 0 W/m 13,7 C 15,5 C 4,0 km/h (1 Bft) 0,00 %
14.07.2015 01:50 15,5 C 89 % 1017,2 hPa 0,3 l/m 5,4 km/h (1 Bft) W-SW 251 0 min 0,000 mm 0,0 UV-I 0 W/m 13,7 C 15,5 C 7,9 km/h (2 Bft) 0,00 %
14.07.2015 01:55 15,4 C 89 % 1017,2 hPa 0,0 l/m 1,4 km/h (1 Bft) W-NW 292 0 min 0,000 mm 0,0 UV-I 0 W/m 13,6 C 15,4 C 4,0 km/h (1 Bft) 0,00 %
14.07.2015 02:00 15,4 C 90 % 1017,2 hPa 0,0 l/m 5,8 km/h (2 Bft) W-SW 252 0 min 0,000 mm 0,0 UV-I 0 W/m 13,8 C 15,4 C 7,9 km/h (2 Bft) 0,00 %
14.07.2015 02:05 15,3 C 90 % 1017,3 hPa 0,0 l/m 1,8 km/h (1 Bft) NW 309 0 min 0,000 mm 0,0 UV-I 0 W/m 13,7 C 15,3 C 4,0 km/h (1 Bft) 0,00 %
14.07.2015 02:10 15,3 C 90 % 1017,1 hPa 0,0 l/m 0,4 km/h (0 Bft) W-SW 255 0 min 0,000 mm 0,0 UV-I 0 W/m 13,7 C 15,3 C 4,0 km/h (1 Bft) 0,00 %
14.07.2015 02:15 15,2 C 90 % 1017,2 hPa 0,0 l/m 0,0 km/h (0 Bft) N 356 0 min 0,000 mm 0,0 UV-I 0 W/m 13,6 C 15,2 C 0,0 km/h (0 Bft) 0,00 %
14.07.2015 02:20 15,2 C 91 % 1017,1 hPa 0,0 l/m 0,0 km/h (0 Bft) O 85 0 min 0,000 mm 0,0 UV-I 0 W/m 13,7 C 15,2 C 0,0 km/h (0 Bft) 0,00 %
14.07.2015 02:25 15,2 C 91 % 1016,8 hPa 0,0 l/m 0,0 km/h (0 Bft) N 2 0 min 0,000 mm 0,0 UV-I 0 W/m 13,7 C 15,2 C 0,0 km/h (0 Bft) 0,00 %
14.07.2015 02:30 15,2 C 91 % 1017,2 hPa 0,0 l/m 0,0 km/h (0 Bft) NO 36 0 min 0,000 mm 0,0 UV-I 0 W/m 13,7 C 15,2 C 0,0 km/h (0 Bft) 0,00 %
14.07.2015 02:35 15,2 C 91 % 1017,2 hPa 0,0 l/m 0,0 km/h (0 Bft) N 354 0 min 0,000 mm 0,0 UV-I 0 W/m 13,7 C 15,2 C 0,0 km/h (0 Bft) 0,00 %
14.07.2015 02:40 15,2 C 92 % 1017,1 hPa 0,0 l/m 0,0 km/h (0 Bft) NO 55 0 min 0,000 mm 0,0 UV-I 0 W/m 13,9 C 15,2 C 0,0 km/h (0 Bft) 0,00 %
14.07.2015 02:45 15,2 C 93 % 1017,2 hPa 0,0 l/m 0,0 km/h (0 Bft) NO 49 0 min 0,000 mm 0,0 UV-I 0 W/m 14,1 C 15,2 C 0,0 km/h (0 Bft) 0,00 %
14.07.2015 02:50 15,3 C 93 % 1017,0 hPa 0,0 l/m 0,0 km/h (0 Bft) N 357 0 min 0,000 mm 0,0 UV-I 0 W/m 14,2 C 15,3 C 0,0 km/h (0 Bft) 0,00 %
14.07.2015 02:55 15,3 C 94 % 1017,1 hPa 0,0 l/m 0,0 km/h (0 Bft) NO 47 0 min 0,000 mm 0,0 UV-I 0 W/m 14,3 C 15,3 C 0,0 km/h (0 Bft) 0,00 %
14.07.2015 03:00 15,4 C 94 % 1017,0 hPa 0,0 l/m 0,0 km/h (0 Bft) NO 46 0 min 0,000 mm 0,0 UV-I 0 W/m 14,4 C 15,4 C 0,0 km/h (0 Bft) 0,00 %
14.07.2015 03:05 15,4 C 94 % 1017,1 hPa 0,0 l/m 0,0 km/h (0 Bft) NO 44 0 min 0,000 mm 0,0 UV-I 0 W/m 14,4 C 15,4 C 0,0 km/h (0 Bft) 0,00 %
14.07.2015 03:10 15,5 C 94 % 1016,9 hPa 0,0 l/m 0,0 km/h (0 Bft) N-NO 24 0 min 0,000 mm 0,0 UV-I 0 W/m 14,5 C 15,5 C 0,0 km/h (0 Bft) 0,00 %
14.07.2015 03:15 15,5 C 94 % 1016,8 hPa 0,0 l/m 0,0 km/h (0 Bft) N 11 0 min 0,000 mm 0,0 UV-I 0 W/m 14,5 C 15,5 C 0,0 km/h (0 Bft) 0,00 %
14.07.2015 03:20 15,5 C 94 % 1016,7 hPa 0,0 l/m 0,0 km/h (0 Bft) W-SW 255 0 min 0,000 mm 0,0 UV-I 0 W/m 14,5 C 15,5 C 0,0 km/h (0 Bft) 0,00 %
14.07.2015 03:25 15,5 C 93 % 1016,7 hPa 0,0 l/m 0,0 km/h (0 Bft) O-NO 60 0 min 0,000 mm 0,0 UV-I 0 W/m 14,4 C 15,5 C 0,0 km/h (0 Bft) 0,00 %
14.07.2015 03:30 15,5 C 93 % 1016,8 hPa 0,0 l/m 1,4 km/h (1 Bft) N 351 0 min 0,000 mm 0,0 UV-I 0 W/m 14,4 C 15,5 C 4,0 km/h (1 Bft) 0,00 %
14.07.2015 03:35 15,5 C 93 % 1016,9 hPa 0,0 l/m 0,0 km/h (0 Bft) NO 49 0 min 0,000 mm 0,0 UV-I 0 W/m 14,4 C 15,5 C 0,0 km/h (0 Bft) 0,00 %
14.07.2015 03:40 15,5 C 93 % 1016,8 hPa 0,3 l/m 0,4 km/h (0 Bft) N-NW 335 0 min 0,000 mm 0,0 UV-I 0 W/m 14,4 C 15,5 C 4,0 km/h (1 Bft) 0,00 %
14.07.2015 03:45 15,4 C 93 % 1016,7 hPa 0,0 l/m 0,0 km/h (0 Bft) NO 36 0 min 0,000 mm 0,0 UV-I 0 W/m 14,3 C 15,4 C 0,0 km/h (0 Bft) 0,00 %
14.07.2015 03:50 15,4 C 93 % 1016,9 hPa 0,0 l/m 0,0 km/h (0 Bft) NO 36 0 min 0,000 mm 0,0 UV-I 0 W/m 14,3 C 15,4 C 0,0 km/h (0 Bft) 0,00 %
14.07.2015 03:55 15,3 C 93 % 1016,8 hPa 0,0 l/m 1,4 km/h (1 Bft) NW 310 0 min 0,000 mm 0,0 UV-I 0 W/m 14,2 C 15,3 C 4,0 km/h (1 Bft) 0,00 %
14.07.2015 04:00 15,3 C 93 % 1016,8 hPa 0,0 l/m 0,0 km/h (0 Bft) NO 52 0 min 0,000 mm 0,0 UV-I 0 W/m 14,2 C 15,3 C 0,0 km/h (0 Bft) 0,00 %
14.07.2015 04:05 15,3 C 94 % 1016,7 hPa 0,0 l/m 1,4 km/h (1 Bft) N 354 0 min 0,000 mm 0,0 UV-I 0 W/m 14,3 C 15,3 C 4,0 km/h (1 Bft) 0,00 %
14.07.2015 04:10 15,3 C 94 % 1016,8 hPa 0,0 l/m 0,0 km/h (0 Bft) N 355 0 min 0,000 mm 0,0 UV-I 0 W/m 14,3 C 15,3 C 0,0 km/h (0 Bft) 0,00 %
14.07.2015 04:15 15,3 C 94 % 1016,7 hPa 0,0 l/m 0,0 km/h (0 Bft) NO 35 0 min 0,000 mm 0,0 UV-I 0 W/m 14,3 C 15,3 C 0,0 km/h (0 Bft) 0,00 %
14.07.2015 04:20 15,3 C 95 % 1016,7 hPa 0,0 l/m 0,0 km/h (0 Bft) NO 42 0 min 0,000 mm 0,0 UV-I 0 W/m 14,5 C 15,3 C 0,0 km/h (0 Bft) 0,00 %
14.07.2015 04:25 15,2 C 95 % 1016,7 hPa 0,0 l/m 0,0 km/h (0 Bft) N-NW 331 0 min 0,000 mm 0,0 UV-I 0 W/m 14,4 C 15,2 C 0,0 km/h (0 Bft) 0,00 %
14.07.2015 04:30 15,2 C 95 % 1016,8 hPa 0,0 l/m 0,7 km/h (0 Bft) N-NW 346 0 min 0,000 mm 0,0 UV-I 0 W/m 14,4 C 15,2 C 4,0 km/h (1 Bft) 0,00 %
14.07.2015 04:35 15,2 C 95 % 1016,8 hPa 0,0 l/m 1,4 km/h (1 Bft) W-SW 255 0 min 0,000 mm 0,0 UV-I 0 W/m 14,4 C 15,2 C 4,0 km/h (1 Bft) 0,00 %
14.07.2015 04:40 15,2 C 95 % 1016,8 hPa 0,3 l/m 0,7 km/h (0 Bft) W-SW 256 0 min 0,000 mm 0,0 UV-I 0 W/m 14,4 C 15,2 C 4,0 km/h (1 Bft) 0,00 %
14.07.2015 04:45 15,2 C 95 % 1017,0 hPa 0,0 l/m 0,0 km/h (0 Bft) NO 34 0 min 0,000 mm 0,0 UV-I 0 W/m 14,4 C 15,2 C 0,0 km/h (0 Bft) 0,00 %
14.07.2015 04:50 15,2 C 96 % 1016,9 hPa 0,0 l/m 0,7 km/h (0 Bft) W 276 0 min 0,000 mm 0,0 UV-I 0 W/m 14,6 C 15,2 C 4,0 km/h (1 Bft) 0,00 %
14.07.2015 04:55 15,2 C 96 % 1016,8 hPa 0,0 l/m 0,4 km/h (0 Bft) N-NW 345 0 min 0,000 mm 0,0 UV-I 0 W/m 14,6 C 15,2 C 4,0 km/h (1 Bft) 0,00 %
14.07.2015 05:00 15,2 C 96 % 1016,8 hPa 0,0 l/m 0,0 km/h (0 Bft) NO 48 0 min 0,000 mm 0,0 UV-I 0 W/m 14,6 C 15,2 C 0,0 km/h (0 Bft) 0,00 %
14.07.2015 05:05 15,2 C 96 % 1016,7 hPa 0,0 l/m 0,0 km/h (0 Bft) NO 47 0 min 0,000 mm 0,0 UV-I 0 W/m 14,6 C 15,2 C 0,0 km/h (0 Bft) 0,00 %
14.07.2015 05:10 15,2 C 96 % 1016,9 hPa 0,0 l/m 2,9 km/h (1 Bft) W-SW 256 0 min 0,000 mm 0,0 UV-I 0 W/m 14,6 C 15,2 C 7,9 km/h (2 Bft) 0,00 %
14.07.2015 05:15 15,2 C 97 % 1016,8 hPa 0,0 l/m 0,0 km/h (0 Bft) N 354 0 min 0,000 mm 0,0 UV-I 0 W/m 14,7 C 15,2 C 0,0 km/h (0 Bft) 0,00 %
14.07.2015 05:20 15,2 C 97 % 1016,9 hPa 0,0 l/m 0,0 km/h (0 Bft) N-NW 348 0 min 0,000 mm 0,0 UV-I 0 W/m 14,7 C 15,2 C 0,0 km/h (0 Bft) 0,00 %
14.07.2015 05:25 15,3 C 97 % 1016,9 hPa 0,0 l/m 0,7 km/h (0 Bft) W-SW 255 0 min 0,000 mm 0,0 UV-I 0 W/m 14,8 C 15,3 C 4,0 km/h (1 Bft) 0,00 %
14.07.2015 05:30 15,3 C 97 % 1016,9 hPa 0,0 l/m 0,0 km/h (0 Bft) N 354 0 min 0,000 mm 0,0 UV-I 0 W/m 14,8 C 15,3 C 0,0 km/h (0 Bft) 0,00 %
14.07.2015 05:35 15,3 C 97 % 1016,9 hPa 0,0 l/m 3,2 km/h (1 Bft) W 272 0 min 0,000 mm 0,0 UV-I 0 W/m 14,8 C 15,3 C 4,0 km/h (1 Bft) 0,00 %
14.07.2015 05:40 15,3 C 97 % 1016,9 hPa 0,0 l/m 0,7 km/h (0 Bft) O 93 0 min 0,000 mm 0,0 UV-I 0 W/m 14,8 C 15,3 C 4,0 km/h (1 Bft) 0,00 %
14.07.2015 05:45 15,3 C 97 % 1016,8 hPa 0,0 l/m 0,7 km/h (0 Bft) W-NW 294 0 min 0,000 mm 0,0 UV-I 0 W/m 14,8 C 15,3 C 4,0 km/h (1 Bft) 0,00 %
14.07.2015 05:50 15,3 C 97 % 1016,9 hPa 0,0 l/m 1,8 km/h (1 Bft) W 276 0 min 0,000 mm 0,0 UV-I 0 W/m 14,8 C 15,3 C 4,0 km/h (1 Bft) 0,00 %
14.07.2015 05:55 15,3 C 97 % 1016,8 hPa 0,0 l/m 1,8 km/h (1 Bft) W-SW 256 0 min 0,000 mm 0,0 UV-I 2 W/m 14,8 C 15,3 C 4,0 km/h (1 Bft) 0,00 %
14.07.2015 06:00 15,3 C 97 % 1017,0 hPa 0,0 l/m 0,0 km/h (0 Bft) O-NO 65 0 min 0,000 mm 0,0 UV-I 5 W/m 14,8 C 15,3 C 0,0 km/h (0 Bft) 0,00 %
14.07.2015 06:05 15,3 C 98 % 1016,9 hPa 0,3 l/m 0,0 km/h (0 Bft) NO 35 0 min 0,000 mm 0,0 UV-I 4 W/m 15,0 C 15,3 C 0,0 km/h (0 Bft) 0,00 %
14.07.2015 06:10 15,3 C 98 % 1016,9 hPa 0,3 l/m 6,5 km/h (2 Bft) S-SW 206 0 min 0,000 mm 0,0 UV-I 0 W/m 15,0 C 15,3 C 7,9 km/h (2 Bft) 0,00 %
14.07.2015 06:15 15,4 C 98 % 1016,9 hPa 0,0 l/m 2,2 km/h (1 Bft) N-NW 340 0 min 0,000 mm 0,0 UV-I 5 W/m 15,1 C 15,4 C 4,0 km/h (1 Bft) 0,00 %
14.07.2015 06:20 15,4 C 98 % 1017,0 hPa 0,0 l/m 0,0 km/h (0 Bft) N 356 0 min 0,000 mm 0,0 UV-I 16 W/m 15,1 C 15,4 C 0,0 km/h (0 Bft) 0,00 %
14.07.2015 06:25 15,4 C 98 % 1017,1 hPa 0,0 l/m 1,8 km/h (1 Bft) W-NW 283 0 min 0,000 mm 0,0 UV-I 11 W/m 15,1 C 15,4 C 4,0 km/h (1 Bft) 0,00 %
14.07.2015 06:30 15,4 C 98 % 1017,0 hPa 0,0 l/m 0,4 km/h (0 Bft) W-NW 296 0 min 0,000 mm 0,0 UV-I 12 W/m 15,1 C 15,4 C 4,0 km/h (1 Bft) 0,00 %
14.07.2015 06:35 15,4 C 98 % 1017,0 hPa 0,0 l/m 0,0 km/h (0 Bft) N-NO 29 0 min 0,000 mm 0,0 UV-I 27 W/m 15,1 C 15,4 C 0,0 km/h (0 Bft) 0,00 %
14.07.2015 06:40 15,4 C 98 % 1017,1 hPa 0,0 l/m 0,0 km/h (0 Bft) N 352 0 min 0,000 mm 0,0 UV-I 29 W/m 15,1 C 15,4 C 0,0 km/h (0 Bft) 0,00 %
14.07.2015 06:45 15,5 C 98 % 1016,8 hPa 0,0 l/m 0,4 km/h (0 Bft) O 95 0 min 0,000 mm 0,0 UV-I 33 W/m 15,2 C 15,5 C 4,0 km/h (1 Bft) 0,00 %
14.07.2015 06:50 15,5 C 98 % 1016,9 hPa 0,3 l/m 0,0 km/h (0 Bft) NO 35 0 min 0,000 mm 0,0 UV-I 32 W/m 15,2 C 15,5 C 0,0 km/h (0 Bft) 0,00 %
14.07.2015 06:55 15,6 C 98 % 1016,9 hPa 0,0 l/m 0,0 km/h (0 Bft) NO 40 0 min 0,000 mm 0,0 UV-I 27 W/m 15,3 C 15,6 C 0,0 km/h (0 Bft) 0,00 %
14.07.2015 07:00 15,6 C 98 % 1016,9 hPa 0,0 l/m 0,0 km/h (0 Bft) N-NO 30 0 min 0,000 mm 0,0 UV-I 22 W/m 15,3 C 15,6 C 0,0 km/h (0 Bft) 0,00 %
14.07.2015 07:05 15,6 C 98 % 1017,0 hPa 0,0 l/m 0,7 km/h (0 Bft) NO 35 0 min 0,000 mm 0,0 UV-I 28 W/m 15,3 C 15,6 C 4,0 km/h (1 Bft) 0,00 %
14.07.2015 07:10 15,6 C 98 % 1016,9 hPa 0,0 l/m 0,0 km/h (0 Bft) N-NO 26 0 min 0,000 mm 0,0 UV-I 35 W/m 15,3 C 15,6 C 0,0 km/h (0 Bft) 0,00 %
14.07.2015 07:15 15,6 C 98 % 1017,2 hPa 0,0 l/m 0,0 km/h (0 Bft) N-NW 344 0 min 0,000 mm 0,0 UV-I 35 W/m 15,3 C 15,6 C 0,0 km/h (0 Bft) 0,00 %
14.07.2015 07:20 15,7 C 98 % 1016,9 hPa 0,0 l/m 2,9 km/h (1 Bft) W-NW 298 0 min 0,000 mm 0,0 UV-I 34 W/m 15,4 C 15,7 C 7,9 km/h (2 Bft) 0,00 %
14.07.2015 07:25 15,7 C 98 % 1017,1 hPa 0,0 l/m 0,0 km/h (0 Bft) NO 46 0 min 0,000 mm 0,0 UV-I 34 W/m 15,4 C 15,7 C 0,0 km/h (0 Bft) 0,00 %
14.07.2015 07:30 15,8 C 98 % 1017,0 hPa 0,0 l/m 0,0 km/h (0 Bft) N 349 0 min 0,000 mm 0,0 UV-I 49 W/m 15,5 C 15,8 C 0,0 km/h (0 Bft) 0,00 %
14.07.2015 07:35 15,8 C 98 % 1016,9 hPa 0,0 l/m 0,0 km/h (0 Bft) N-NO 31 0 min 0,000 mm 0,0 UV-I 67 W/m 15,5 C 15,8 C 0,0 km/h (0 Bft) 0,00 %
14.07.2015 07:40 15,8 C 97 % 1017,1 hPa 0,0 l/m 0,0 km/h (0 Bft) N 350 0 min 0,000 mm 0,0 UV-I 83 W/m 15,3 C 15,8 C 0,0 km/h (0 Bft) 0,00 %
14.07.2015 07:45 15,9 C 96 % 1016,9 hPa 0,0 l/m 0,7 km/h (0 Bft) N-NO 32 0 min 0,000 mm 1,0 UV-I 115 W/m 15,3 C 15,9 C 4,0 km/h (1 Bft) 0,00 %
14.07.2015 07:50 16,0 C 96 % 1017,0 hPa 0,0 l/m 0,7 km/h (0 Bft) W-SW 256 0 min 0,000 mm 0,0 UV-I 112 W/m 15,4 C 16,0 C 4,0 km/h (1 Bft) 0,00 %
14.07.2015 07:55 16,1 C 96 % 1017,0 hPa 0,0 l/m 0,4 km/h (0 Bft) W-SW 255 0 min 0,000 mm 0,0 UV-I 111 W/m 15,5 C 16,1 C 4,0 km/h (1 Bft) 0,00 %
14.07.2015 08:00 16,1 C 96 % 1016,9 hPa 0,0 l/m 0,4 km/h (0 Bft) O-SO 107 0 min 0,000 mm 1,0 UV-I 124 W/m 15,5 C 16,1 C 4,0 km/h (1 Bft) 0,00 %
14.07.2015 08:05 16,2 C 96 % 1016,9 hPa 0,0 l/m 0,7 km/h (0 Bft) N-NW 339 0 min 0,000 mm 1,0 UV-I 120 W/m 15,6 C 16,2 C 4,0 km/h (1 Bft) 0,00 %
14.07.2015 08:10 16,3 C 95 % 1017,0 hPa 0,0 l/m 0,0 km/h (0 Bft) N-NW 346 0 min 0,000 mm 1,0 UV-I 120 W/m 15,5 C 16,3 C 0,0 km/h (0 Bft) 0,00 %
14.07.2015 08:15 16,4 C 95 % 1017,0 hPa 0,0 l/m 1,8 km/h (1 Bft) NW 324 0 min 0,000 mm 1,0 UV-I 130 W/m 15,6 C 16,4 C 4,0 km/h (1 Bft) 0,00 %
14.07.2015 08:20 16,4 C 94 % 1016,9 hPa 0,0 l/m 0,7 km/h (0 Bft) S 188 0 min 0,000 mm 1,0 UV-I 112 W/m 15,4 C 16,4 C 4,0 km/h (1 Bft) 0,00 %
14.07.2015 08:25 16,5 C 93 % 1016,9 hPa 0,0 l/m 0,0 km/h (0 Bft) N 354 0 min 0,000 mm 0,0 UV-I 109 W/m 15,4 C 16,5 C 0,0 km/h (0 Bft) 0,00 %
14.07.2015 08:30 16,6 C 93 % 1016,9 hPa 0,0 l/m 1,4 km/h (1 Bft) SO 140 0 min 0,000 mm 1,0 UV-I 175 W/m 15,5 C 16,6 C 4,0 km/h (1 Bft) 0,00 %
14.07.2015 08:35 16,7 C 93 % 1016,7 hPa 0,0 l/m 4,0 km/h (1 Bft) O-NO 72 0 min 0,000 mm 1,0 UV-I 247 W/m 15,6 C 16,7 C 7,9 km/h (2 Bft) 0,00 %
14.07.2015 08:40 16,8 C 93 % 1016,5 hPa 0,0 l/m 9,0 km/h (2 Bft) NW 304 0 min 0,000 mm 1,0 UV-I 229 W/m 15,7 C 15,5 C 15,8 km/h (3 Bft) 0,00 %
14.07.2015 08:45 17,1 C 92 % 1016,7 hPa 0,0 l/m 3,2 km/h (1 Bft) W-NW 287 0 min 0,000 mm 1,0 UV-I 189 W/m 15,8 C 17,1 C 7,9 km/h (2 Bft) 0,00 %
14.07.2015 08:50 17,3 C 91 % 1016,7 hPa 0,0 l/m 0,4 km/h (0 Bft) NO 37 0 min 0,000 mm 1,0 UV-I 181 W/m 15,8 C 17,3 C 4,0 km/h (1 Bft) 0,00 %
14.07.2015 08:55 17,4 C 90 % 1016,4 hPa 0,0 l/m 0,0 km/h (0 Bft) NW 315 0 min 0,000 mm 1,0 UV-I 207 W/m 15,7 C 17,4 C 0,0 km/h (0 Bft) 0,00 %
14.07.2015 09:00 17,6 C 89 % 1016,7 hPa 0,0 l/m 0,0 km/h (0 Bft) N 351 0 min 0,000 mm 1,0 UV-I 238 W/m 15,8 C 17,6 C 0,0 km/h (0 Bft) 0,00 %
14.07.2015 09:05 17,6 C 88 % 1016,7 hPa 0,0 l/m 0,4 km/h (0 Bft) O-SO 111 0 min 0,000 mm 1,0 UV-I 221 W/m 15,6 C 17,6 C 4,0 km/h (1 Bft) 0,00 %
14.07.2015 09:10 17,7 C 87 % 1016,8 hPa 0,0 l/m 2,2 km/h (1 Bft) W-NW 294 0 min 0,000 mm 1,0 UV-I 206 W/m 15,5 C 17,7 C 4,0 km/h (1 Bft) 0,00 %
14.07.2015 09:15 17,8 C 87 % 1016,8 hPa 0,0 l/m 4,0 km/h (1 Bft) W-NW 284 0 min 0,000 mm 1,0 UV-I 212 W/m 15,6 C 17,8 C 7,9 km/h (2 Bft) 0,00 %
14.07.2015 09:20 17,9 C 86 % 1016,6 hPa 0,0 l/m 0,0 km/h (0 Bft) N-NO 33 0 min 0,000 mm 1,0 UV-I 209 W/m 15,5 C 17,9 C 0,0 km/h (0 Bft) 0,00 %
14.07.2015 09:25 17,9 C 86 % 1016,6 hPa 0,0 l/m 2,9 km/h (1 Bft) W-SW 256 0 min 0,000 mm 1,0 UV-I 223 W/m 15,5 C 17,9 C 4,0 km/h (1 Bft) 0,00 %
14.07.2015 09:30 18,0 C 85 % 1016,8 hPa 0,0 l/m 0,7 km/h (0 Bft) NW 320 0 min 0,000 mm 1,0 UV-I 250 W/m 15,4 C 18,0 C 4,0 km/h (1 Bft) 0,00 %
14.07.2015 09:35 18,1 C 84 % 1016,8 hPa 0,0 l/m 4,0 km/h (1 Bft) NW 316 0 min 0,000 mm 1,0 UV-I 220 W/m 15,4 C 18,1 C 7,9 km/h (2 Bft) 0,00 %
14.07.2015 09:40 18,2 C 84 % 1016,6 hPa 0,0 l/m 0,7 km/h (0 Bft) N-NO 27 0 min 0,000 mm 1,0 UV-I 232 W/m 15,4 C 18,2 C 4,0 km/h (1 Bft) 0,00 %
14.07.2015 09:45 18,3 C 84 % 1016,4 hPa 0,0 l/m 4,0 km/h (1 Bft) W-SW 256 0 min 0,000 mm 1,0 UV-I 282 W/m 15,5 C 18,3 C 7,9 km/h (2 Bft) 0,00 %
14.07.2015 09:50 18,4 C 84 % 1016,4 hPa 0,0 l/m 0,0 km/h (0 Bft) N-NO 28 0 min 0,000 mm 1,0 UV-I 263 W/m 15,6 C 18,4 C 0,0 km/h (0 Bft) 0,00 %
14.07.2015 09:55 18,6 C 83 % 1016,6 hPa 0,0 l/m 1,4 km/h (1 Bft) S-SW 196 0 min 0,000 mm 1,0 UV-I 288 W/m 15,7 C 18,6 C 4,0 km/h (1 Bft) 0,00 %
14.07.2015 10:00 18,9 C 82 % 1016,5 hPa 0,0 l/m 3,2 km/h (1 Bft) N-NW 336 0 min 0,000 mm 2,0 UV-I 311 W/m 15,8 C 18,9 C 4,0 km/h (1 Bft) 0,00 %
14.07.2015 10:05 19,1 C 81 % 1016,3 hPa 0,0 l/m 0,7 km/h (0 Bft) NO 45 0 min 0,000 mm 2,0 UV-I 337 W/m 15,8 C 19,1 C 4,0 km/h (1 Bft) 0,00 %
14.07.2015 10:10 19,3 C 80 % 1016,3 hPa 0,0 l/m 0,4 km/h (0 Bft) N 352 0 min 0,000 mm 2,0 UV-I 370 W/m 15,8 C 19,3 C 4,0 km/h (1 Bft) 0,00 %
14.07.2015 10:15 19,5 C 80 % 1016,1 hPa 0,0 l/m 2,2 km/h (1 Bft) N 354 0 min 0,000 mm 2,0 UV-I 389 W/m 16,0 C 19,5 C 4,0 km/h (1 Bft) 0,00 %
14.07.2015 10:20 19,7 C 78 % 1016,3 hPa 0,0 l/m 2,2 km/h (1 Bft) W-SW 254 5 min 0,000 mm 3,0 UV-I 412 W/m 15,8 C 19,7 C 4,0 km/h (1 Bft) 0,00 %
14.07.2015 10:25 20,1 C 75 % 1016,1 hPa 0,0 l/m 13,0 km/h (3 Bft) W 263 5 min 0,000 mm 3,0 UV-I 542 W/m 15,5 C 17,9 C 15,8 km/h (3 Bft) 0,00 %
14.07.2015 10:30 20,6 C 73 % 1016,1 hPa 0,0 l/m 3,2 km/h (1 Bft) W-NW 296 5 min 0,000 mm 4,0 UV-I 459 W/m 15,6 C 20,6 C 4,0 km/h (1 Bft) 0,00 %
14.07.2015 10:35 21,0 C 73 % 1015,9 hPa 0,0 l/m 3,2 km/h (1 Bft) O-NO 69 5 min 0,000 mm 3,0 UV-I 493 W/m 16,0 C 21,0 C 4,0 km/h (1 Bft) 0,00 %
14.07.2015 10:40 21,4 C 69 % 1015,8 hPa 0,0 l/m 9,0 km/h (2 Bft) W-SW 255 0 min 0,000 mm 3,0 UV-I 346 W/m 15,5 C 20,5 C 11,9 km/h (2 Bft) 0,00 %
14.07.2015 10:45 21,5 C 70 % 1015,6 hPa 0,0 l/m 3,2 km/h (1 Bft) N-NW 344 0 min 0,000 mm 2,0 UV-I 306 W/m 15,8 C 21,5 C 4,0 km/h (1 Bft) 0,00 %
14.07.2015 10:50 21,2 C 72 % 1015,7 hPa 0,0 l/m 1,4 km/h (1 Bft) W-NW 295 0 min 0,000 mm 1,0 UV-I 372 W/m 15,9 C 21,2 C 4,0 km/h (1 Bft) 0,00 %
14.07.2015 10:55 21,0 C 70 % 1015,8 hPa 0,0 l/m 6,5 km/h (2 Bft) W-SW 256 0 min 0,000 mm 2,0 UV-I 296 W/m 15,3 C 21,0 C 7,9 km/h (2 Bft) 0,00 %
14.07.2015 11:00 20,9 C 69 % 1016,0 hPa 0,0 l/m 2,2 km/h (1 Bft) N-NW 332 0 min 0,000 mm 2,0 UV-I 361 W/m 15,0 C 20,9 C 4,0 km/h (1 Bft) 0,00 %
14.07.2015 11:05 20,8 C 67 % 1015,9 hPa 0,0 l/m 4,3 km/h (1 Bft) SW 216 0 min 0,000 mm 2,0 UV-I 288 W/m 14,4 C 20,8 C 7,9 km/h (2 Bft) 0,00 %
14.07.2015 11:10 20,9 C 66 % 1015,9 hPa 0,0 l/m 0,7 km/h (0 Bft) W-SW 255 0 min 0,000 mm 1,0 UV-I 408 W/m 14,3 C 20,9 C 4,0 km/h (1 Bft) 0,00 %
14.07.2015 11:15 20,9 C 68 % 1015,9 hPa 0,0 l/m 2,9 km/h (1 Bft) W 264 0 min 0,000 mm 2,0 UV-I 223 W/m 14,8 C 20,9 C 4,0 km/h (1 Bft) 0,00 %
14.07.2015 11:20 21,0 C 66 % 1015,9 hPa 0,0 l/m 7,2 km/h (2 Bft) N-NW 343 0 min 0,000 mm 1,0 UV-I 270 W/m 14,4 C 20,7 C 11,9 km/h (2 Bft) 0,00 %
14.07.2015 11:25 21,0 C 67 % 1015,8 hPa 0,0 l/m 5,8 km/h (2 Bft) N-NW 340 0 min 0,000 mm 1,0 UV-I 267 W/m 14,6 C 21,0 C 7,9 km/h (2 Bft) 0,00 %
14.07.2015 11:30 20,9 C 67 % 1015,8 hPa 0,0 l/m 0,7 km/h (0 Bft) O 88 0 min 0,000 mm 1,0 UV-I 283 W/m 14,5 C 20,9 C 4,0 km/h (1 Bft) 0,00 %
14.07.2015 11:35 21,0 C 68 % 1015,9 hPa 0,0 l/m 2,2 km/h (1 Bft) NW 310 0 min 0,000 mm 2,0 UV-I 167 W/m 14,9 C 21,0 C 4,0 km/h (1 Bft) 0,00 %
14.07.2015 11:40 21,0 C 65 % 1016,1 hPa 0,0 l/m 1,4 km/h (1 Bft) NO 53 0 min 0,000 mm 1,0 UV-I 291 W/m 14,2 C 21,0 C 4,0 km/h (1 Bft) 0,00 %
14.07.2015 11:45 21,0 C 67 % 1016,1 hPa 0,0 l/m 1,8 km/h (1 Bft) N-NO 31 0 min 0,000 mm 1,0 UV-I 334 W/m 14,6 C 21,0 C 7,9 km/h (2 Bft) 0,00 %
14.07.2015 11:50 20,8 C 67 % 1016,1 hPa 0,0 l/m 4,3 km/h (1 Bft) N 354 0 min 0,000 mm 2,0 UV-I 368 W/m 14,4 C 20,8 C 7,9 km/h (2 Bft) 0,00 %
14.07.2015 11:55 20,8 C 67 % 1016,0 hPa 0,0 l/m 1,8 km/h (1 Bft) NW 319 0 min 0,000 mm 2,0 UV-I 276 W/m 14,4 C 20,8 C 4,0 km/h (1 Bft) 0,00 %
14.07.2015 12:00 20,9 C 65 % 1016,1 hPa 0,0 l/m 0,4 km/h (0 Bft) O-SO 106 0 min 0,000 mm 2,0 UV-I 310 W/m 14,1 C 20,9 C 4,0 km/h (1 Bft) 0,00 %
14.07.2015 12:05 21,1 C 64 % 1016,1 hPa 0,0 l/m 5,4 km/h (1 Bft) W-SW 255 0 min 0,000 mm 1,0 UV-I 320 W/m 14,0 C 21,1 C 7,9 km/h (2 Bft) 0,00 %
14.07.2015 12:10 21,1 C 64 % 1016,1 hPa 0,0 l/m 0,7 km/h (0 Bft) N-NO 30 0 min 0,000 mm 1,0 UV-I 215 W/m 14,0 C 21,1 C 4,0 km/h (1 Bft) 0,00 %
14.07.2015 12:15 21,3 C 65 % 1016,1 hPa 0,0 l/m 0,4 km/h (0 Bft) N-NO 28 0 min 0,000 mm 2,0 UV-I 421 W/m 14,4 C 21,3 C 4,0 km/h (1 Bft) 0,00 %
14.07.2015 12:20 21,4 C 64 % 1016,1 hPa 0,0 l/m 1,8 km/h (1 Bft) W-NW 292 5 min 0,000 mm 1,0 UV-I 488 W/m 14,3 C 21,4 C 4,0 km/h (1 Bft) 0,00 %
14.07.2015 12:25 21,4 C 66 % 1015,9 hPa 0,0 l/m 1,8 km/h (1 Bft) N 349 0 min 0,000 mm 2,0 UV-I 444 W/m 14,8 C 21,4 C 4,0 km/h (1 Bft) 0,00 %
14.07.2015 12:30 21,6 C 66 % 1015,9 hPa 0,0 l/m 5,4 km/h (1 Bft) W-NW 285 5 min 0,000 mm 3,0 UV-I 635 W/m 15,0 C 21,6 C 7,9 km/h (2 Bft) 0,00 %
14.07.2015 12:35 22,0 C 64 % 1015,8 hPa 0,0 l/m 0,0 km/h (0 Bft) N-NW 348 5 min 0,000 mm 3,0 UV-I 611 W/m 14,9 C 22,0 C 0,0 km/h (0 Bft) 0,00 %
14.07.2015 12:40 22,4 C 62 % 1015,7 hPa 0,0 l/m 2,2 km/h (1 Bft) O-NO 76 5 min 0,000 mm 3,0 UV-I 551 W/m 14,8 C 22,4 C 4,0 km/h (1 Bft) 0,00 %
14.07.2015 12:45 22,7 C 62 % 1015,8 hPa 0,0 l/m 1,8 km/h (1 Bft) N-NO 24 5 min 0,000 mm 4,0 UV-I 907 W/m 15,0 C 22,7 C 4,0 km/h (1 Bft) 0,00 %
14.07.2015 12:50 22,9 C 60 % 1015,5 hPa 0,0 l/m 5,4 km/h (1 Bft) S 184 5 min 0,000 mm 4,0 UV-I 566 W/m 14,7 C 22,9 C 7,9 km/h (2 Bft) 0,00 %
14.07.2015 12:55 23,3 C 57 % 1015,4 hPa 0,0 l/m 1,4 km/h (1 Bft) S 173 5 min 0,000 mm 3,0 UV-I 679 W/m 14,3 C 23,3 C 4,0 km/h (1 Bft) 0,00 %
14.07.2015 13:00 23,5 C 61 % 1015,5 hPa 0,0 l/m 0,7 km/h (0 Bft) N-NO 19 0 min 0,000 mm 3,0 UV-I 334 W/m 15,5 C 23,5 C 4,0 km/h (1 Bft) 0,00 %
14.07.2015 13:05 23,6 C 60 % 1015,4 hPa 0,0 l/m 0,7 km/h (0 Bft) S 187 0 min 0,000 mm 3,0 UV-I 329 W/m 15,4 C 23,6 C 4,0 km/h (1 Bft) 0,00 %
14.07.2015 13:10 24,1 C 58 % 1015,4 hPa 0,0 l/m 1,8 km/h (1 Bft) NW 321 0 min 0,000 mm 5,0 UV-I 240 W/m 15,3 C 24,1 C 4,0 km/h (1 Bft) 0,00 %
14.07.2015 13:15 24,3 C 55 % 1015,2 hPa 0,0 l/m 2,2 km/h (1 Bft) N-NW 338 0 min 0,000 mm 2,0 UV-I 197 W/m 14,7 C 24,3 C 7,9 km/h (2 Bft) 0,00 %
14.07.2015 13:20 24,2 C 57 % 1015,3 hPa 0,0 l/m 5,4 km/h (1 Bft) W-NW 292 0 min 0,000 mm 2,0 UV-I 158 W/m 15,1 C 24,2 C 7,9 km/h (2 Bft) 0,00 %
14.07.2015 13:25 23,7 C 58 % 1015,3 hPa 0,0 l/m 3,2 km/h (1 Bft) N-NO 14 0 min 0,000 mm 1,0 UV-I 156 W/m 14,9 C 23,7 C 4,0 km/h (1 Bft) 0,00 %
14.07.2015 13:30 23,2 C 61 % 1015,4 hPa 0,0 l/m 0,4 km/h (0 Bft) W-SW 256 0 min 0,000 mm 1,0 UV-I 172 W/m 15,3 C 23,2 C 4,0 km/h (1 Bft) 0,00 %
14.07.2015 13:35 22,7 C 61 % 1015,7 hPa 0,0 l/m 2,2 km/h (1 Bft) NO 40 0 min 0,000 mm 1,0 UV-I 256 W/m 14,8 C 22,7 C 4,0 km/h (1 Bft) 0,00 %
14.07.2015 13:40 22,2 C 61 % 1015,8 hPa 0,0 l/m 0,4 km/h (0 Bft) NO 39 0 min 0,000 mm 1,0 UV-I 328 W/m 14,3 C 22,2 C 4,0 km/h (1 Bft) 0,00 %
14.07.2015 13:45 21,9 C 61 % 1015,7 hPa 0,0 l/m 4,3 km/h (1 Bft) N-NW 327 0 min 0,000 mm 1,0 UV-I 277 W/m 14,0 C 21,9 C 7,9 km/h (2 Bft) 0,00 %
14.07.2015 13:50 21,7 C 62 % 1015,6 hPa 0,0 l/m 0,7 km/h (0 Bft) N 8 0 min 0,000 mm 1,0 UV-I 322 W/m 14,1 C 21,7 C 4,0 km/h (1 Bft) 0,00 %
14.07.2015 13:55 21,5 C 65 % 1015,5 hPa 0,0 l/m 0,0 km/h (0 Bft) NO 41 0 min 0,000 mm 2,0 UV-I 333 W/m 14,6 C 21,5 C 0,0 km/h (0 Bft) 0,00 %
14.07.2015 14:00 21,6 C 65 % 1015,7 hPa 0,0 l/m 1,4 km/h (1 Bft) N-NW 334 0 min 0,000 mm 2,0 UV-I 314 W/m 14,7 C 21,6 C 4,0 km/h (1 Bft) 0,00 %
14.07.2015 14:05 22,0 C 62 % 1015,7 hPa 0,0 l/m 2,9 km/h (1 Bft) N-NW 334 0 min 0,000 mm 1,0 UV-I 418 W/m 14,4 C 22,0 C 4,0 km/h (1 Bft) 0,00 %
14.07.2015 14:10 22,2 C 62 % 1015,6 hPa 0,0 l/m 4,7 km/h (1 Bft) W 275 0 min 0,000 mm 2,0 UV-I 417 W/m 14,6 C 22,2 C 7,9 km/h (2 Bft) 0,00 %
14.07.2015 14:15 22,4 C 62 % 1015,6 hPa 0,0 l/m 4,0 km/h (1 Bft) W 264 0 min 0,000 mm 2,0 UV-I 287 W/m 14,8 C 22,4 C 4,0 km/h (1 Bft) 0,00 %
14.07.2015 14:20 22,5 C 61 % 1015,5 hPa 0,0 l/m 1,4 km/h (1 Bft) W-SW 241 0 min 0,000 mm 1,0 UV-I 248 W/m 14,6 C 22,5 C 4,0 km/h (1 Bft) 0,00 %
14.07.2015 14:25 22,6 C 63 % 1015,5 hPa 0,0 l/m 4,7 km/h (1 Bft) W-SW 256 0 min 0,000 mm 2,0 UV-I 228 W/m 15,2 C 22,6 C 7,9 km/h (2 Bft) 0,00 %
14.07.2015 14:30 22,8 C 62 % 1015,4 hPa 0,0 l/m 6,5 km/h (2 Bft) W-SW 258 0 min 0,000 mm 2,0 UV-I 258 W/m 15,1 C 22,8 C 7,9 km/h (2 Bft) 0,00 %
14.07.2015 14:35 23,1 C 62 % 1015,3 hPa 0,0 l/m 1,4 km/h (1 Bft) NW 305 0 min 0,000 mm 2,0 UV-I 291 W/m 15,4 C 23,1 C 4,0 km/h (1 Bft) 0,00 %
14.07.2015 14:40 23,4 C 58 % 1015,0 hPa 0,0 l/m 8,3 km/h (2 Bft) W-SW 237 0 min 0,000 mm 2,0 UV-I 454 W/m 14,7 C 22,8 C 11,9 km/h (2 Bft) 0,00 %
14.07.2015 14:45 23,4 C 59 % 1015,0 hPa 0,0 l/m 2,9 km/h (1 Bft) NO 37 0 min 0,000 mm 1,0 UV-I 433 W/m 14,9 C 23,4 C 4,0 km/h (1 Bft) 0,00 %
14.07.2015 14:50 23,1 C 59 % 1015,2 hPa 0,0 l/m 5,4 km/h (1 Bft) W-NW 299 0 min 0,000 mm 1,0 UV-I 381 W/m 14,6 C 23,1 C 7,9 km/h (2 Bft) 0,00 %
14.07.2015 14:55 22,8 C 62 % 1015,2 hPa 0,0 l/m 0,0 km/h (0 Bft) O-NO 70 0 min 0,000 mm 1,0 UV-I 281 W/m 15,1 C 22,8 C 0,0 km/h (0 Bft) 0,00 %
14.07.2015 15:00 22,7 C 62 % 1015,3 hPa 0,0 l/m 1,4 km/h (1 Bft) N 359 0 min 0,000 mm 2,0 UV-I 225 W/m 15,0 C 22,7 C 4,0 km/h (1 Bft) 0,00 %
14.07.2015 15:05 22,7 C 62 % 1015,2 hPa 0,0 l/m 5,8 km/h (2 Bft) W-SW 256 0 min 0,000 mm 1,0 UV-I 261 W/m 15,0 C 22,7 C 7,9 km/h (2 Bft) 0,00 %
14.07.2015 15:10 22,9 C 61 % 1015,1 hPa 0,0 l/m 0,0 km/h (0 Bft) N-NO 32 0 min 0,000 mm 2,0 UV-I 285 W/m 15,0 C 22,9 C 0,0 km/h (0 Bft) 0,00 %
14.07.2015 15:15 23,2 C 61 % 1015,2 hPa 0,0 l/m 2,2 km/h (1 Bft) N-NW 329 0 min 0,000 mm 2,0 UV-I 337 W/m 15,3 C 23,2 C 4,0 km/h (1 Bft) 0,00 %
14.07.2015 15:20 23,6 C 58 % 1015,3 hPa 0,0 l/m 3,2 km/h (1 Bft) W-NW 293 0 min 0,000 mm 2,0 UV-I 277 W/m 14,8 C 23,6 C 4,0 km/h (1 Bft) 0,00 %
14.07.2015 15:25 23,9 C 59 % 1014,9 hPa 0,0 l/m 4,3 km/h (1 Bft) W-NW 296 0 min 0,000 mm 2,0 UV-I 208 W/m 15,4 C 23,9 C 7,9 km/h (2 Bft) 0,00 %
14.07.2015 15:30 23,9 C 59 % 1015,1 hPa 0,0 l/m 4,0 km/h (1 Bft) N 355 5 min 0,000 mm 1,0 UV-I 883 W/m 15,4 C 23,9 C 7,9 km/h (2 Bft) 0,00 %
14.07.2015 15:35 23,6 C 60 % 1015,0 hPa 0,0 l/m 0,7 km/h (0 Bft) N-NO 24 5 min 0,000 mm 1,0 UV-I 764 W/m 15,4 C 23,6 C 4,0 km/h (1 Bft) 0,00 %
14.07.2015 15:40 23,4 C 60 % 1014,9 hPa 0,0 l/m 2,9 km/h (1 Bft) N-NO 30 0 min 0,000 mm 1,0 UV-I 342 W/m 15,2 C 23,4 C 7,9 km/h (2 Bft) 0,00 %
14.07.2015 15:45 23,2 C 61 % 1014,8 hPa 0,0 l/m 0,0 km/h (0 Bft) S 173 0 min 0,000 mm 2,0 UV-I 328 W/m 15,3 C 23,2 C 0,0 km/h (0 Bft) 0,00 %
14.07.2015 15:50 23,3 C 60 % 1014,9 hPa 0,0 l/m 4,3 km/h (1 Bft) S-SW 209 0 min 0,000 mm 2,0 UV-I 369 W/m 15,1 C 23,3 C 7,9 km/h (2 Bft) 0,00 %
14.07.2015 15:55 23,6 C 59 % 1014,8 hPa 0,0 l/m 0,4 km/h (0 Bft) N-NO 25 0 min 0,000 mm 1,0 UV-I 320 W/m 15,1 C 23,6 C 4,0 km/h (1 Bft) 0,00 %
14.07.2015 16:00 23,6 C 58 % 1014,8 hPa 0,0 l/m 4,7 km/h (1 Bft) NW 310 0 min 0,000 mm 1,0 UV-I 336 W/m 14,8 C 23,6 C 11,9 km/h (2 Bft) 0,00 %
14.07.2015 16:05 23,5 C 60 % 1014,8 hPa 0,0 l/m 1,8 km/h (1 Bft) N-NW 337 0 min 0,000 mm 3,0 UV-I 315 W/m 15,3 C 23,5 C 4,0 km/h (1 Bft) 0,00 %
14.07.2015 16:10 23,6 C 58 % 1014,8 hPa 0,0 l/m 0,4 km/h (0 Bft) O-NO 58 0 min 0,000 mm 3,0 UV-I 306 W/m 14,8 C 23,6 C 4,0 km/h (1 Bft) 0,00 %
14.07.2015 16:15 24,0 C 54 % 1014,6 hPa 0,0 l/m 1,4 km/h (1 Bft) O 97 0 min 0,000 mm 2,0 UV-I 343 W/m 14,1 C 24,0 C 4,0 km/h (1 Bft) 0,00 %
14.07.2015 16:20 24,4 C 56 % 1014,5 hPa 0,0 l/m 0,0 km/h (0 Bft) NW 312 0 min 0,000 mm 2,0 UV-I 304 W/m 15,0 C 24,4 C 0,0 km/h (0 Bft) 0,00 %
14.07.2015 16:25 24,5 C 54 % 1014,6 hPa 0,0 l/m 4,0 km/h (1 Bft) N-NW 342 0 min 0,000 mm 2,0 UV-I 295 W/m 14,6 C 24,5 C 7,9 km/h (2 Bft) 0,00 %
14.07.2015 16:30 24,6 C 57 % 1014,8 hPa 0,0 l/m 4,3 km/h (1 Bft) N-NW 345 0 min 0,000 mm 2,0 UV-I 211 W/m 15,5 C 24,6 C 7,9 km/h (2 Bft) 0,00 %
14.07.2015 16:35 24,3 C 54 % 1014,7 hPa 0,0 l/m 5,4 km/h (1 Bft) N-NW 346 0 min 0,000 mm 2,0 UV-I 213 W/m 14,4 C 24,3 C 7,9 km/h (2 Bft) 0,00 %
14.07.2015 16:40 24,1 C 56 % 1014,7 hPa 0,0 l/m 0,0 km/h (0 Bft) N-NO 21 0 min 0,000 mm 2,0 UV-I 190 W/m 14,8 C 24,1 C 0,0 km/h (0 Bft) 0,00 %
14.07.2015 16:45 24,1 C 55 % 1014,6 hPa 0,0 l/m 4,0 km/h (1 Bft) NW 325 0 min 0,000 mm 2,0 UV-I 145 W/m 14,5 C 24,1 C 4,0 km/h (1 Bft) 0,00 %
14.07.2015 16:50 24,1 C 56 % 1014,7 hPa 0,0 l/m 0,4 km/h (0 Bft) N-NW 340 0 min 0,000 mm 2,0 UV-I 144 W/m 14,8 C 24,1 C 4,0 km/h (1 Bft) 0,00 %
14.07.2015 16:55 24,0 C 57 % 1014,7 hPa 0,0 l/m 4,0 km/h (1 Bft) N-NW 347 0 min 0,000 mm 2,0 UV-I 166 W/m 14,9 C 24,0 C 7,9 km/h (2 Bft) 0,00 %
14.07.2015 17:00 23,9 C 57 % 1014,5 hPa 0,0 l/m 4,3 km/h (1 Bft) W-NW 287 0 min 0,000 mm 1,0 UV-I 162 W/m 14,9 C 23,9 C 7,9 km/h (2 Bft) 0,00 %
14.07.2015 17:05 23,9 C 57 % 1014,7 hPa 0,0 l/m 2,9 km/h (1 Bft) NW 314 0 min 0,000 mm 2,0 UV-I 149 W/m 14,9 C 23,9 C 4,0 km/h (1 Bft) 0,00 %
14.07.2015 17:10 24,0 C 57 % 1014,8 hPa 0,0 l/m 5,8 km/h (2 Bft) W-SW 256 0 min 0,000 mm 1,0 UV-I 125 W/m 14,9 C 24,0 C 7,9 km/h (2 Bft) 0,00 %
14.07.2015 17:15 24,0 C 57 % 1014,7 hPa 0,0 l/m 0,4 km/h (0 Bft) N-NW 339 0 min 0,000 mm 1,0 UV-I 107 W/m 14,9 C 24,0 C 4,0 km/h (1 Bft) 0,00 %
14.07.2015 17:20 23,8 C 58 % 1014,7 hPa 0,0 l/m 1,8 km/h (1 Bft) N 359 0 min 0,000 mm 1,0 UV-I 135 W/m 15,0 C 23,8 C 4,0 km/h (1 Bft) 0,00 %
14.07.2015 17:25 23,6 C 58 % 1014,9 hPa 0,0 l/m 5,8 km/h (2 Bft) NW 305 0 min 0,000 mm 1,0 UV-I 120 W/m 14,8 C 23,6 C 7,9 km/h (2 Bft) 0,00 %
14.07.2015 17:30 23,5 C 58 % 1014,9 hPa 0,0 l/m 4,0 km/h (1 Bft) NW 323 0 min 0,000 mm 1,0 UV-I 111 W/m 14,7 C 23,5 C 7,9 km/h (2 Bft) 0,00 %
14.07.2015 17:35 23,3 C 59 % 1014,8 hPa 0,0 l/m 0,0 km/h (0 Bft) NO 50 0 min 0,000 mm 1,0 UV-I 130 W/m 14,8 C 23,3 C 0,0 km/h (0 Bft) 0,00 %
14.07.2015 17:40 23,3 C 59 % 1014,8 hPa 0,0 l/m 0,0 km/h (0 Bft) N 353 0 min 0,000 mm 1,0 UV-I 152 W/m 14,8 C 23,3 C 0,0 km/h (0 Bft) 0,00 %
14.07.2015 17:45 23,4 C 59 % 1014,7 hPa 0,0 l/m 0,0 km/h (0 Bft) N 349 0 min 0,000 mm 1,0 UV-I 175 W/m 14,9 C 23,4 C 0,0 km/h (0 Bft) 0,00 %
14.07.2015 17:50 23,3 C 60 % 1014,7 hPa 0,0 l/m 0,0 km/h (0 Bft) NO 37 0 min 0,000 mm 1,0 UV-I 159 W/m 15,1 C 23,3 C 0,0 km/h (0 Bft) 0,00 %
14.07.2015 17:55 23,3 C 58 % 1014,6 hPa 0,0 l/m 2,2 km/h (1 Bft) NW 312 0 min 0,000 mm 1,0 UV-I 129 W/m 14,6 C 23,3 C 4,0 km/h (1 Bft) 0,00 %
14.07.2015 18:00 23,3 C 59 % 1014,7 hPa 0,0 l/m 6,8 km/h (2 Bft) W 263 0 min 0,000 mm 1,0 UV-I 112 W/m 14,8 C 23,2 C 11,9 km/h (2 Bft) 0,00 %
14.07.2015 18:05 23,2 C 59 % 1014,7 hPa 0,0 l/m 0,4 km/h (0 Bft) N-NW 333 0 min 0,000 mm 1,0 UV-I 126 W/m 14,7 C 23,2 C 4,0 km/h (1 Bft) 0,00 %
14.07.2015 18:10 23,1 C 60 % 1014,9 hPa 0,0 l/m 0,0 km/h (0 Bft) N 355 0 min 0,000 mm 1,0 UV-I 150 W/m 14,9 C 23,1 C 0,0 km/h (0 Bft) 0,00 %
14.07.2015 18:15 23,1 C 60 % 1015,0 hPa 0,0 l/m 0,0 km/h (0 Bft) NO 47 0 min 0,000 mm 1,0 UV-I 142 W/m 14,9 C 23,1 C 0,0 km/h (0 Bft) 0,00 %
14.07.2015 18:20 23,0 C 59 % 1014,8 hPa 0,0 l/m 0,7 km/h (0 Bft) W-SW 255 0 min 0,000 mm 1,0 UV-I 134 W/m 14,5 C 23,0 C 4,0 km/h (1 Bft) 0,00 %
14.07.2015 18:25 23,0 C 61 % 1014,8 hPa 0,0 l/m 0,0 km/h (0 Bft) W 260 0 min 0,000 mm 1,0 UV-I 115 W/m 15,1 C 23,0 C 0,0 km/h (0 Bft) 0,00 %
14.07.2015 18:30 23,1 C 61 % 1014,8 hPa 0,0 l/m 0,0 km/h (0 Bft) NO 49 0 min 0,000 mm 1,0 UV-I 99 W/m 15,2 C 23,1 C 0,0 km/h (0 Bft) 0,00 %
14.07.2015 18:35 23,1 C 61 % 1014,8 hPa 0,0 l/m 0,0 km/h (0 Bft) NO 46 0 min 0,000 mm 1,0 UV-I 99 W/m 15,2 C 23,1 C 0,0 km/h (0 Bft) 0,00 %
14.07.2015 18:40 23,2 C 60 % 1014,6 hPa 0,0 l/m 0,4 km/h (0 Bft) NW 316 0 min 0,000 mm 1,0 UV-I 96 W/m 15,0 C 23,2 C 4,0 km/h (1 Bft) 0,00 %
14.07.2015 18:45 23,2 C 60 % 1014,7 hPa 0,0 l/m 0,0 km/h (0 Bft) N 351 0 min 0,000 mm 1,0 UV-I 96 W/m 15,0 C 23,2 C 0,0 km/h (0 Bft) 0,00 %
14.07.2015 18:50 23,2 C 60 % 1014,6 hPa 0,0 l/m 0,0 km/h (0 Bft) N-NO 29 0 min 0,000 mm 1,0 UV-I 94 W/m 15,0 C 23,2 C 0,0 km/h (0 Bft) 0,00 %
14.07.2015 18:55 23,1 C 59 % 1014,7 hPa 0,0 l/m 0,4 km/h (0 Bft) N-NW 330 0 min 0,000 mm 1,0 UV-I 156 W/m 14,6 C 23,1 C 4,0 km/h (1 Bft) 0,00 %
14.07.2015 19:00 23,0 C 60 % 1014,7 hPa 0,0 l/m 2,9 km/h (1 Bft) W-NW 283 0 min 0,000 mm 1,0 UV-I 107 W/m 14,8 C 23,0 C 7,9 km/h (2 Bft) 0,00 %
14.07.2015 19:05 23,0 C 61 % 1014,7 hPa 0,0 l/m 0,0 km/h (0 Bft) NO 40 0 min 0,000 mm 1,0 UV-I 0 W/m 15,1 C 23,0 C 0,0 km/h (0 Bft) 0,00 %
14.07.2015 19:10 23,1 C 60 % 1014,8 hPa 0,0 l/m 3,2 km/h (1 Bft) W-NW 300 0 min 0,000 mm 1,0 UV-I 50 W/m 14,9 C 23,1 C 4,0 km/h (1 Bft) 0,00 %
14.07.2015 19:15 23,1 C 61 % 1014,7 hPa 0,0 l/m 6,5 km/h (2 Bft) W-SW 256 0 min 0,000 mm 1,0 UV-I 39 W/m 15,2 C 23,1 C 7,9 km/h (2 Bft) 0,00 %
14.07.2015 19:20 23,0 C 62 % 1014,6 hPa 0,0 l/m 1,8 km/h (1 Bft) N-NW 332 0 min 0,000 mm 1,0 UV-I 37 W/m 15,3 C 23,0 C 4,0 km/h (1 Bft) 0,00 %
14.07.2015 19:25 22,9 C 62 % 1014,7 hPa 0,0 l/m 0,0 km/h (0 Bft) NO 34 0 min 0,000 mm 0,0 UV-I 30 W/m 15,2 C 22,9 C 0,0 km/h (0 Bft) 0,00 %
14.07.2015 19:30 22,8 C 62 % 1014,6 hPa 0,0 l/m 5,4 km/h (1 Bft) W-NW 295 0 min 0,000 mm 0,0 UV-I 12 W/m 15,1 C 22,8 C 7,9 km/h (2 Bft) 0,00 %
14.07.2015 19:35 22,7 C 62 % 1014,8 hPa 0,0 l/m 0,0 km/h (0 Bft) NO 44 0 min 0,000 mm 0,0 UV-I 6 W/m 15,0 C 22,7 C 0,0 km/h (0 Bft) 0,00 %
14.07.2015 19:40 22,7 C 62 % 1014,6 hPa 0,0 l/m 0,0 km/h (0 Bft) W-NW 298 0 min 0,000 mm 0,0 UV-I 5 W/m 15,0 C 22,7 C 0,0 km/h (0 Bft) 0,00 %
14.07.2015 19:45 22,7 C 62 % 1014,7 hPa 0,0 l/m 0,0 km/h (0 Bft) N 6 0 min 0,000 mm 0,0 UV-I 1 W/m 15,0 C 22,7 C 0,0 km/h (0 Bft) 0,00 %
14.07.2015 19:50 22,8 C 61 % 1014,7 hPa 0,0 l/m 0,7 km/h (0 Bft) N-NW 327 0 min 0,000 mm 0,0 UV-I 1 W/m 14,9 C 22,8 C 4,0 km/h (1 Bft) 0,00 %
14.07.2015 19:55 22,9 C 62 % 1014,7 hPa 0,0 l/m 0,0 km/h (0 Bft) NO 38 0 min 0,000 mm 0,0 UV-I 2 W/m 15,2 C 22,9 C 0,0 km/h (0 Bft) 0,00 %
14.07.2015 20:00 22,8 C 62 % 1014,7 hPa 0,0 l/m 0,0 km/h (0 Bft) NO 46 0 min 0,000 mm 0,0 UV-I 4 W/m 15,1 C 22,8 C 0,0 km/h (0 Bft) 0,00 %
14.07.2015 20:05 22,6 C 62 % 1014,7 hPa 0,0 l/m 0,0 km/h (0 Bft) NO 39 0 min 0,000 mm 0,0 UV-I 3 W/m 14,9 C 22,6 C 0,0 km/h (0 Bft) 0,00 %
14.07.2015 20:10 22,4 C 63 % 1014,7 hPa 0,0 l/m 0,0 km/h (0 Bft) NO 41 0 min 0,000 mm 0,0 UV-I 2 W/m 15,0 C 22,4 C 0,0 km/h (0 Bft) 0,00 %
14.07.2015 20:15 22,3 C 63 % 1014,9 hPa 0,0 l/m 0,0 km/h (0 Bft) NO 35 0 min 0,000 mm 0,0 UV-I 0 W/m 14,9 C 22,3 C 0,0 km/h (0 Bft) 0,00 %
14.07.2015 20:20 22,1 C 63 % 1014,9 hPa 0,0 l/m 0,0 km/h (0 Bft) N-NW 337 0 min 0,000 mm 0,0 UV-I 0 W/m 14,7 C 22,1 C 0,0 km/h (0 Bft) 0,00 %
14.07.2015 20:25 22,0 C 63 % 1014,8 hPa 0,0 l/m 0,0 km/h (0 Bft) NO 45 0 min 0,000 mm 0,0 UV-I 0 W/m 14,6 C 22,0 C 0,0 km/h (0 Bft) 0,00 %
14.07.2015 20:30 21,9 C 63 % 1015,0 hPa 0,0 l/m 0,0 km/h (0 Bft) NO 55 0 min 0,000 mm 0,0 UV-I 0 W/m 14,5 C 21,9 C 0,0 km/h (0 Bft) 0,00 %
14.07.2015 20:35 21,8 C 63 % 1015,1 hPa 0,0 l/m 0,0 km/h (0 Bft) NO 46 0 min 0,000 mm 0,0 UV-I 0 W/m 14,4 C 21,8 C 0,0 km/h (0 Bft) 0,00 %
14.07.2015 20:40 21,7 C 64 % 1015,2 hPa 0,0 l/m 0,0 km/h (0 Bft) NO 36 0 min 0,000 mm 0,0 UV-I 0 W/m 14,6 C 21,7 C 0,0 km/h (0 Bft) 0,00 %
14.07.2015 20:45 21,6 C 65 % 1015,1 hPa 0,0 l/m 0,0 km/h (0 Bft) NO 45 0 min 0,000 mm 0,0 UV-I 0 W/m 14,7 C 21,6 C 0,0 km/h (0 Bft) 0,00 %
14.07.2015 20:50 21,5 C 66 % 1015,1 hPa 0,0 l/m 0,7 km/h (0 Bft) W-NW 288 0 min 0,000 mm 0,0 UV-I 0 W/m 14,9 C 21,5 C 4,0 km/h (1 Bft) 0,00 %
14.07.2015 20:55 21,4 C 66 % 1015,1 hPa 0,0 l/m 0,7 km/h (0 Bft) N-NO 26 0 min 0,000 mm 0,0 UV-I 0 W/m 14,8 C 21,4 C 4,0 km/h (1 Bft) 0,00 %
14.07.2015 21:00 21,3 C 66 % 1015,2 hPa 0,0 l/m 0,0 km/h (0 Bft) NO 52 0 min 0,000 mm 0,0 UV-I 0 W/m 14,7 C 21,3 C 0,0 km/h (0 Bft) 0,00 %
14.07.2015 21:05 21,2 C 67 % 1015,5 hPa 0,0 l/m 0,0 km/h (0 Bft) N 349 0 min 0,000 mm 0,0 UV-I 0 W/m 14,8 C 21,2 C 0,0 km/h (0 Bft) 0,00 %
14.07.2015 21:10 21,1 C 66 % 1015,4 hPa 0,0 l/m 0,4 km/h (0 Bft) N 358 0 min 0,000 mm 0,0 UV-I 0 W/m 14,5 C 21,1 C 4,0 km/h (1 Bft) 0,00 %
14.07.2015 21:15 21,0 C 67 % 1015,3 hPa 0,0 l/m 0,0 km/h (0 Bft) N-NO 27 0 min 0,000 mm 0,0 UV-I 0 W/m 14,6 C 21,0 C 0,0 km/h (0 Bft) 0,00 %
14.07.2015 21:20 20,8 C 68 % 1015,4 hPa 0,0 l/m 0,0 km/h (0 Bft) NO 36 0 min 0,000 mm 0,0 UV-I 0 W/m 14,7 C 20,8 C 0,0 km/h (0 Bft) 0,00 %
14.07.2015 21:25 20,7 C 68 % 1015,6 hPa 0,0 l/m 0,0 km/h (0 Bft) N-NW 348 0 min 0,000 mm 0,0 UV-I 0 W/m 14,6 C 20,7 C 0,0 km/h (0 Bft) 0,00 %
14.07.2015 21:30 20,7 C 68 % 1015,8 hPa 0,0 l/m 0,0 km/h (0 Bft) N-NO 27 0 min 0,000 mm 0,0 UV-I 0 W/m 14,6 C 20,7 C 0,0 km/h (0 Bft) 0,00 %
14.07.2015 21:35 20,7 C 68 % 1015,8 hPa 0,0 l/m 0,0 km/h (0 Bft) N-NO 27 0 min 0,000 mm 0,0 UV-I 0 W/m 14,6 C 20,7 C 0,0 km/h (0 Bft) 0,00 %
14.07.2015 21:40 20,6 C 68 % 1015,6 hPa 0,0 l/m 0,0 km/h (0 Bft) NO 43 0 min 0,000 mm 0,0 UV-I 0 W/m 14,5 C 20,6 C 0,0 km/h (0 Bft) 0,00 %
14.07.2015 21:45 20,6 C 68 % 1015,9 hPa 0,0 l/m 0,0 km/h (0 Bft) O-NO 74 0 min 0,000 mm 0,0 UV-I 0 W/m 14,5 C 20,6 C 0,0 km/h (0 Bft) 0,00 %
14.07.2015 21:50 20,6 C 68 % 1015,9 hPa 0,0 l/m 0,4 km/h (0 Bft) W-NW 289 0 min 0,000 mm 0,0 UV-I 0 W/m 14,5 C 20,6 C 4,0 km/h (1 Bft) 0,00 %
14.07.2015 21:55 20,6 C 68 % 1015,9 hPa 0,0 l/m 0,0 km/h (0 Bft) N-NO 33 0 min 0,000 mm 0,0 UV-I 0 W/m 14,5 C 20,6 C 0,0 km/h (0 Bft) 0,00 %
14.07.2015 22:00 20,5 C 69 % 1015,9 hPa 0,0 l/m 0,0 km/h (0 Bft) NO 47 0 min 0,000 mm 0,0 UV-I 0 W/m 14,6 C 20,5 C 0,0 km/h (0 Bft) 0,00 %
14.07.2015 22:05 20,3 C 69 % 1016,1 hPa 0,0 l/m 0,0 km/h (0 Bft) NO 46 0 min 0,000 mm 0,0 UV-I 0 W/m 14,4 C 20,3 C 0,0 km/h (0 Bft) 0,00 %
14.07.2015 22:10 20,2 C 71 % 1016,2 hPa 0,0 l/m 0,0 km/h (0 Bft) N-NO 26 0 min 0,000 mm 0,0 UV-I 0 W/m 14,8 C 20,2 C 0,0 km/h (0 Bft) 0,00 %
14.07.2015 22:15 20,0 C 72 % 1016,3 hPa 0,0 l/m 0,0 km/h (0 Bft) O-NO 58 0 min 0,000 mm 0,0 UV-I 0 W/m 14,8 C 20,0 C 0,0 km/h (0 Bft) 0,00 %
14.07.2015 22:20 19,9 C 73 % 1016,3 hPa 0,0 l/m 0,0 km/h (0 Bft) NO 36 0 min 0,000 mm 0,0 UV-I 0 W/m 14,9 C 19,9 C 0,0 km/h (0 Bft) 0,00 %
14.07.2015 22:25 19,8 C 73 % 1016,4 hPa 0,0 l/m 0,0 km/h (0 Bft) O-NO 64 0 min 0,000 mm 0,0 UV-I 0 W/m 14,8 C 19,8 C 0,0 km/h (0 Bft) 0,00 %
14.07.2015 22:30 19,7 C 74 % 1016,3 hPa 0,0 l/m 0,0 km/h (0 Bft) NO 50 0 min 0,000 mm 0,0 UV-I 0 W/m 14,9 C 19,7 C 0,0 km/h (0 Bft) 0,00 %
14.07.2015 22:35 19,6 C 74 % 1016,4 hPa 0,0 l/m 0,0 km/h (0 Bft) O-NO 64 0 min 0,000 mm 0,0 UV-I 0 W/m 14,8 C 19,6 C 0,0 km/h (0 Bft) 0,00 %
14.07.2015 22:40 19,6 C 74 % 1016,5 hPa 0,0 l/m 0,0 km/h (0 Bft) O-NO 57 0 min 0,000 mm 0,0 UV-I 0 W/m 14,8 C 19,6 C 0,0 km/h (0 Bft) 0,00 %
14.07.2015 22:45 19,5 C 75 % 1016,4 hPa 0,0 l/m 0,0 km/h (0 Bft) NO 47 0 min 0,000 mm 0,0 UV-I 0 W/m 14,9 C 19,5 C 0,0 km/h (0 Bft) 0,00 %
14.07.2015 22:50 19,5 C 75 % 1016,4 hPa 0,0 l/m 0,0 km/h (0 Bft) NO 53 0 min 0,000 mm 0,0 UV-I 0 W/m 14,9 C 19,5 C 0,0 km/h (0 Bft) 0,00 %
14.07.2015 22:55 19,4 C 76 % 1016,4 hPa 0,0 l/m 0,0 km/h (0 Bft) NO 53 0 min 0,000 mm 0,0 UV-I 0 W/m 15,1 C 19,4 C 0,0 km/h (0 Bft) 0,00 %
14.07.2015 23:00 19,4 C 76 % 1016,5 hPa 0,0 l/m 0,0 km/h (0 Bft) NO 53 0 min 0,000 mm 0,0 UV-I 0 W/m 15,1 C 19,4 C 0,0 km/h (0 Bft) 0,00 %
14.07.2015 23:05 19,3 C 77 % 1016,6 hPa 0,0 l/m 0,0 km/h (0 Bft) NO 54 0 min 0,000 mm 0,0 UV-I 0 W/m 15,2 C 19,3 C 0,0 km/h (0 Bft) 0,00 %
14.07.2015 23:10 19,3 C 76 % 1016,9 hPa 0,0 l/m 0,0 km/h (0 Bft) NO 44 0 min 0,000 mm 0,0 UV-I 0 W/m 15,0 C 19,3 C 0,0 km/h (0 Bft) 0,00 %
14.07.2015 23:15 19,2 C 78 % 1016,8 hPa 0,0 l/m 0,0 km/h (0 Bft) NO 47 0 min 0,000 mm 0,0 UV-I 0 W/m 15,3 C 19,2 C 0,0 km/h (0 Bft) 0,00 %
14.07.2015 23:20 19,2 C 78 % 1016,6 hPa 0,0 l/m 0,0 km/h (0 Bft) NO 41 0 min 0,000 mm 0,0 UV-I 0 W/m 15,3 C 19,2 C 0,0 km/h (0 Bft) 0,00 %
14.07.2015 23:25 19,1 C 79 % 1016,7 hPa 0,0 l/m 0,0 km/h (0 Bft) NO 53 0 min 0,000 mm 0,0 UV-I 0 W/m 15,4 C 19,1 C 0,0 km/h (0 Bft) 0,00 %
14.07.2015 23:30 19,1 C 80 % 1016,6 hPa 0,0 l/m 0,0 km/h (0 Bft) NO 53 0 min 0,000 mm 0,0 UV-I 0 W/m 15,6 C 19,1 C 0,0 km/h (0 Bft) 0,00 %
14.07.2015 23:35 19,0 C 81 % 1016,8 hPa 0,0 l/m 0,0 km/h (0 Bft) NO 53 0 min 0,000 mm 0,0 UV-I 0 W/m 15,7 C 19,0 C 0,0 km/h (0 Bft) 0,00 %
14.07.2015 23:40 18,9 C 81 % 1016,7 hPa 0,0 l/m 0,0 km/h (0 Bft) NO 50 0 min 0,000 mm 0,0 UV-I 0 W/m 15,6 C 18,9 C 0,0 km/h (0 Bft) 0,00 %
14.07.2015 23:45 18,8 C 81 % 1016,8 hPa 0,0 l/m 0,0 km/h (0 Bft) NO 50 0 min 0,000 mm 0,0 UV-I 0 W/m 15,5 C 18,8 C 0,0 km/h (0 Bft) 0,00 %
14.07.2015 23:50 18,6 C 82 % 1017,0 hPa 0,0 l/m 0,0 km/h (0 Bft) NO 40 0 min 0,000 mm 0,0 UV-I 0 W/m 15,5 C 18,6 C 0,0 km/h (0 Bft) 0,00 %
14.07.2015 23:55 18,5 C 82 % 1017,0 hPa 0,0 l/m 0,0 km/h (0 Bft) NO 39 0 min 0,000 mm 0,0 UV-I 0 W/m 15,4 C 18,5 C 0,0 km/h (0 Bft) 0,00 %
_ Min-Zeit 02:15 16:15 16:20 - 00:00 - - - - - - 02:15 02:15 00:00 00:00
Minimum _ 15,2 C 54 % 1014,5 hPa - 0,0 km/h (0 Bft) - - - - - - 13,6 C 15,2 C 0,0 km/h (0 Bft) 0,00 %
_ Max-Zeit 16:30 06:05 00:55 00:50 10:25 - - 10:20 00:00 13:10 12:45 10:35 16:30 08:40 00:00
Maximum _ 24,6 C 98 % 1017,5 hPa 0,3 l/m 13,0 km/h
W (3 Bft)
- - 5 min 0,000 mm 5,0 UV-I 907 W/m 16,0 C 24,6 C 15,8 km/h
NW (3 Bft)
0,00 %
Durchschnitt _ 19,4 C 76 % 1016,1 hPa #2,1 l/m 1,4 km/h (1 Bft) W-SW - #1:05 h #0,000 mm 1,6 UV-I 224 W/m 14,8 C 19,4 C 3,1 km/h (1 Bft) 0,00 %